Location: Bayshore Village Mobile Home Park
(26.6945°N, 81.8642°W)
Time: 21:24:08
(UTC+00:00)

Cosmos 1408 Rocket - Pass Details

Date: 17 June 2021
Orbit: 600 x 632 km, 82.6° (Epoch: 31 July)

Event Time Altitude Azimuth Distance (km) Brightness Sun altitude
Exits shadow 08:39:10 41° 163° (SSE) 901 4.1 -21.9°
Maximum altitude 08:40:35 69° 94° (E) 669 3.7 -21.7°
Drops below altitude 10° 08:45:00 10° 11° (N) 2,008 6.9 -21.0°
Sets 08:47:15 0° 9° (N) 2,921 7.8 -20.6°
